Weather History for Biloxi, MS

Change the Weather History Date:

Saturday, August 31, 2013

  Actual Average Record
Temperature  
Mean Temperature 83 °F -  
Max Temperature 91 °F 89 °F 101 °F (1951)
Min Temperature 76 °F 72 °F 66 °F (1968)
Cooling Degree Days 18    
Growing Degree Days 33 (Base 50)    
Moisture  
Dew Point 72 °F    
Average Humidity 70    
Maximum Humidity 91    
Minimum Humidity 54    
Precipitation  
Precipitation 0.00 in - - ()
Sea Level Pressure  
Sea Level Pressure 29.93 in    
Wind  
Wind Speed 2 mph (WSW)    
Max Wind Speed 13 mph    
Max Gust Speed -    
Visibility 10 miles    
Events      
Averages and records for this station are not official NWS values.
T = Trace of Precipitation, MM = Missing Value Source: NWS Daily Summary

Daily Weather History Graph

Daily Weather History Graph

Search for Another Location

Airport:

Trip Planner

Search our weather history database for the weather conditions in past years. The results will help you decide how hot, cold, wet, or windy it might be!

Date:

Astronomy

Aug. 31, 2013 Rise Set
Actual Time 6:31 AM CDT 7:19 PM CDT
Civil Twilight 6:07 AM CDT 7:43 PM CDT
Nautical Twilight 5:38 AM CDT 8:12 PM CDT
Astronomical Twilight 5:09 AM CDT 8:42 PM CDT
Moon 2:12 AM CDT (8/31) 4:07 PM CDT (8/31)
Length of Visible Light 13h 36m
Length of Day
12h 47m
Waning Crescent, 21% of the Moon is Illuminated
Aug 31
Waning Crescent
Sep 5
New
Sep 12
First Quarter
Sep 19
Full
Sep 26
Last Quarter

Hourly Weather History & Observations

Time (CDT) Temp. Heat Index Dew Point Humidity Pressure Visibility Wind Dir Wind Speed Gust Speed Precip Events Conditions
12:58 AM 77.0 °F - 70.9 °F 81% 29.94 in 10.0 mi Calm Calm - N/A   Clear
1:58 AM 77.7 °F - 71.4 °F 81% 29.93 in 10.0 mi Calm Calm - N/A   Clear
2:58 AM 76.5 °F - 70.2 °F 81% 29.93 in 10.0 mi Calm Calm - N/A   Clear
3:58 AM 77.0 °F - 71.4 °F 83% 29.92 in 10.0 mi Variable 1.2 mph - N/A   Clear
4:58 AM 76.5 °F - 71.8 °F 85% 29.93 in 10.0 mi Variable 2.3 mph - N/A   Clear
5:58 AM 76.3 °F - 72.5 °F 88% 29.94 in 10.0 mi Variable 2.3 mph - N/A   Clear
6:58 AM 76.3 °F - 73.6 °F 91% 29.96 in 10.0 mi Calm Calm - N/A   Clear
7:58 AM 78.6 °F - 73.6 °F 84% 29.98 in 10.0 mi Variable 2.3 mph - N/A   Clear
8:58 AM 81.7 °F 85.8 °F 71.1 °F 70% 29.99 in 10.0 mi Variable 3.5 mph - N/A   Clear
9:58 AM 83.8 °F 88.3 °F 70.7 °F 64% 30.00 in 10.0 mi Variable 3.5 mph - N/A   Scattered Clouds
10:58 AM 86.9 °F 92.9 °F 71.6 °F 60% 29.98 in 10.0 mi Variable 3.5 mph - N/A   Clear
11:58 AM 89.4 °F 96.8 °F 72.1 °F 57% 29.97 in 10.0 mi Variable 1.2 mph - N/A   Clear
12:58 PM 90.7 °F 97.9 °F 72.1 °F 54% 29.95 in 10.0 mi West 3.5 mph - N/A   Clear
1:58 PM 90.5 °F 100.3 °F 74.5 °F 59% 29.93 in 10.0 mi Variable 1.2 mph - N/A   Partly Cloudy
2:58 PM 90.9 °F 102.4 °F 75.6 °F 61% 29.92 in 10.0 mi SW 9.2 mph - N/A   Clear
3:58 PM 90.0 °F 99.0 °F 73.9 °F 59% 29.89 in 10.0 mi SW 10.4 mph - N/A   Clear
4:58 PM 88.3 °F 97.9 °F 74.7 °F 64% 29.89 in 10.0 mi SW 12.7 mph - N/A   Clear
5:58 PM 86.9 °F 95.0 °F 73.9 °F 65% 29.88 in 10.0 mi WSW 9.2 mph - N/A   Clear
6:58 PM 84.9 °F 92.1 °F 73.6 °F 69% 29.88 in 10.0 mi WSW 6.9 mph - N/A   Clear
7:58 PM 83.1 °F 88.6 °F 72.3 °F 70% 29.90 in 10.0 mi Calm Calm - N/A   Clear
8:58 PM 82.2 °F 86.4 °F 70.7 °F 68% 29.91 in 10.0 mi Calm Calm - N/A   Clear
9:58 PM 81.7 °F 85.1 °F 69.3 °F 66% 29.91 in 10.0 mi West 3.5 mph - N/A   Clear
10:58 PM 81.0 °F 83.8 °F 68.4 °F 65% 29.92 in 10.0 mi Calm Calm - N/A   Clear
11:58 PM 79.9 °F - 67.1 °F 65% 29.92 in 10.0 mi Calm Calm - N/A   Scattered Clouds